DW3256 Weather Reports


time (UTC)temp
F
wind
direction
speed
knots
gust
knots
rain 1hr
in
rain 24hr
in
rain mn
in
humidity
%
barometer
mb
20260508063018 51 162 1.7 8.7 0.00 0.02 0.00 61 1014.8
20260508062909 50 113 1.7 8.7 0.00 0.02 0.00 58 1014.7
20260508062014 50 218 1.7 6.1 0.00 0.02 0.00 61 1014.7
20260508061516 50 260 0.9 6.1 0.00 0.02 0.00 61 1014.8
20260508061014 50 270 0.9 5.2 0.00 0.02 0.00 65 1014.8
20260508060514 51 221 0.9 1.7 0.00 0.02 0.00 65 1014.8
20260508060012 51 222 0.9 2.6 0.00 0.02 0.00 64 1014.8
20260508055513 51 206 0.9 3.5 0.00 0.02 0.00 63 1014.7
20260508055013 51 202 0.9 3.5 0.00 0.02 0.00 60 1014.6
20260508054514 51 195 0.9 3.5 0.00 0.02 0.00 67 1014.6
20260508054014 51 143 0.9 3.5 0.00 0.02 0.00 63 1014.4
20260508053843 51 196 0.0 1.7 0.00 0.02 0.00 66 1014.4
20260508053013 51 355 0.9 1.7 0.00 0.02 0.00 64 1014.2
20260508052829 51 355 0.0 1.7 0.00 0.02 0.00 64 1014.2
20260508052016 51 24 0.0 1.7 0.00 0.02 0.00 66 1014.2
20260508051517 51 24 0.0 1.7 0.00 0.02 0.00 64 1014.1
20260508051012 51 24 0.0 1.7 0.00 0.02 0.00 65 1014.1
20260508050511 51 24 0.0 0.9 0.00 0.02 0.00 66 1014.0
20260508050014 51 24 0.0 1.7 0.00 0.02 0.00 66 1013.9
20260508045505 51 24 0.0 1.7 0.00 0.02 0.00 64 1013.9
20260508045006 51 24 0.9 2.6 0.00 0.02 0.00 66 1014.0
20260508044823 51 24 0.9 2.6 0.00 0.02 0.00 65 1014.0
20260508044311 51 19 0.0 1.7 0.00 0.02 0.00 65 1013.9
20260508043507 52 19 0.9 1.7 0.00 0.02 0.00 66 1014.0
20260508043007 52 19 0.9 1.7 0.00 0.02 0.00 66 1014.0
20260508042504 52 19 0.9 1.7 0.00 0.02 0.00 66 1013.9
20260508042003 52 19 0.9 1.7 0.00 0.02 0.00 66 1013.8
20260508041901 52 19 0.9 2.6 0.00 0.02 0.00 66 1013.8
20260508041003 52 19 0.9 2.6 0.00 0.02 0.00 66 1013.7
20260508040501 53 19 0.9 1.7 0.00 0.02 0.00 66 1013.6
20260508040004 53 19 0.9 1.7 0.00 0.02 0.00 66 1013.5
20260508035502 53 24 0.9 2.6 0.00 0.02 0.02 65 1013.6
20260508034957 53 24 0.9 2.6 0.00 0.02 0.02 66 1013.5
20260508034821 53 29 0.9 2.6 0.00 0.02 0.02 64 1013.5
20260508033948 53 9 0.9 2.6 0.00 0.02 0.02 64 1013.5
20260508033439 53 24 0.9 2.6 0.00 0.02 0.02 65 1013.6
20260508033308 53 12 0.9 1.7 0.00 0.02 0.02 65 1013.5
20260508032430 53 12 0.9 1.7 0.00 0.02 0.02 64 1013.3
20260508032306 53 12 0.9 1.7 0.00 0.02 0.02 63 1013.2
20260508031431 53 12 0.0 1.7 0.00 0.02 0.02 64 1013.2
20260508030927 53 259 0.0 1.7 0.00 0.02 0.02 63 1013.1
20260508030428 53 196 0.0 1.7 0.00 0.02 0.02 64 1013.1
20260508025927 54 196 0.0 1.7 0.00 0.02 0.02 62 1013.1
20260508025808 54 186 0.0 0.9 0.00 0.02 0.02 65 1013.0
20260508024928 54 185 0.0 0.9 0.00 0.02 0.02 61 1013.0
20260508024430 54 185 0.0 0.9 0.00 0.02 0.02 64 1012.9
20260508024326 55 180 0.0 1.7 0.00 0.02 0.02 64 1012.9
20260508023423 55 172 0.0 2.6 0.00 0.02 0.02 64 1012.8
20260508022923 55 166 0.0 1.7 0.00 0.02 0.02 62 1012.7
20260508022752 56 85 0.9 1.7 0.00 0.02 0.02 58 1012.6
20260508021929 56 43 0.9 5.2 0.00 0.02 0.02 57 1012.6
20260508021430 56 40 0.9 5.2 0.00 0.02 0.02 57 1012.5
20260508020920 56 273 0.9 1.7 0.00 0.02 0.02 59 1012.4
20260508020811 56 272 0.9 2.6 0.00 0.02 0.02 57 1012.3
20260508020115 57 261 0.9 5.2 0.00 0.02 0.02 55 1012.2
20260508020030 57 316 0.9 5.2 0.00 0.02 0.02 58 1012.3
20260508014923 57 29 0.9 1.7 0.00 0.02 0.02 57 1012.2
20260508014420 58 326 0.9 2.6 0.00 0.02 0.02 55 1012.1
20260508013921 58 291 1.7 3.5 0.00 0.02 0.02 54 1012.1
20260508013421 58 264 1.7 4.3 0.00 0.02 0.02 54 1012.0
20260508012921 58 288 2.6 6.1 0.00 0.02 0.02 55 1011.9
20260508012416 58 268 2.6 6.1 0.00 0.02 0.02 54 1011.8
20260508011919 58 275 1.7 7.0 0.00 0.02 0.02 60 1011.8
20260508011416 57 234 0.9 7.0 0.00 0.02 0.02 57 1011.7
20260508010916 58 239 0.9 2.6 0.00 0.02 0.02 57 1011.6
20260508010422 58 146 0.0 2.6 0.00 0.02 0.02 59 1011.5
20260508005921 58 164 0.9 3.5 0.00 0.02 0.02 57 1011.6
20260508005742 59 282 1.7 4.3 0.00 0.02 0.02 58 1011.4
20260508004917 59 266 2.6 4.3 0.00 0.02 0.02 55 1011.4
20260508004416 59 288 2.6 4.3 0.00 0.02 0.02 54 1011.3
20260508004316 58 241 1.7 4.3 0.00 0.02 0.02 55 1011.2
20260508003417 58 162 1.7 4.3 0.00 0.02 0.02 56 1011.2
20260508002917 58 290 0.9 3.5 0.00 0.02 0.02 56 1011.2
20260508002413 59 282 0.9 3.5 0.00 0.02 0.02 56 1011.2
20260508002240 59 281 0.9 3.5 0.00 0.02 0.02 57 1011.1
20260508001740 59 279 0.9 3.5 0.00 0.02 0.02 56 1011.1
20260508000915 60 269 1.7 5.2 0.00 0.02 0.02 55 1011.1
20260508000413 60 242 2.6 6.1 0.00 0.02 0.02 55 1010.9
20260507235911 60 214 2.6 7.0 0.00 0.02 0.02 55 1010.9
20260507235411 60 272 3.5 7.0 0.00 0.02 0.02 53 1010.8
20260507234910 60 277 3.5 7.8 0.00 0.02 0.02 53 1010.8
20260507234407 60 302 4.3 9.6 0.00 0.02 0.02 53 1010.7
20260507233905 60 299 3.5 9.6 0.00 0.02 0.02 54 1010.7
20260507233406 60 277 1.7 6.1 0.00 0.02 0.02 53 1010.6
20260507232904 60 143 2.6 7.8 0.00 0.02 0.02 53 1010.5
20260507232410 60 272 3.5 8.7 0.00 0.02 0.02 54 1010.5
20260507232205 61 241 3.5 8.7 0.00 0.02 0.02 53 1010.4
20260507231401 61 252 3.5 7.0 0.00 0.02 0.02 53 1010.3
20260507230852 61 278 2.6 12.2 0.00 0.02 0.02 54 1010.3
20260507230351 61 316 1.7 12.2 0.00 0.02 0.02 54 1010.3
20260507225843 61 301 1.7 5.2 0.00 0.02 0.02 57 1010.3
20260507225343 61 333 0.9 6.1 0.00 0.02 0.02 61 1010.0
20260507224845 62 81 1.7 6.1 0.00 0.02 0.02 59 1010.0
20260507224343 62 284 2.6 6.1 0.00 0.02 0.02 57 1009.9
20260507223839 61 296 3.5 6.1 0.00 0.02 0.02 57 1009.9
20260507223341 61 295 2.6 5.2 0.00 0.02 0.02 57 1009.9
20260507222842 62 280 3.5 8.7 0.00 0.02 0.02 57 1009.8
20260507222340 62 287 3.5 8.7 0.00 0.02 0.02 56 1009.9
20260507221839 62 291 2.6 6.1 0.00 0.02 0.02 58 1009.9
20260507221338 62 300 2.6 6.1 0.00 0.02 0.02 58 1009.8
20260507221159 62 267 2.6 6.1 0.00 0.02 0.02 57 1009.8
20260507220654 62 198 1.7 5.2 0.00 0.02 0.02 57 1009.7
20260507215835 62 297 2.6 5.2 0.00 0.02 0.02 58 1009.7
20260507215337 62 270 3.5 8.7 0.00 0.02 0.02 58 1009.6
20260507214835 62 220 3.5 8.7 0.00 0.02 0.02 56 1009.4
20260507214331 62 299 2.6 5.2 0.00 0.02 0.02 57 1009.4
20260507213829 62 291 1.7 4.3 0.00 0.02 0.02 59 1009.5
20260507213329 62 348 2.6 7.8 0.00 0.02 0.02 58 1009.4
20260507212830 63 297 3.5 7.8 0.00 0.02 0.02 57 1009.3
20260507212328 63 283 4.3 9.6 0.00 0.02 0.02 57 1009.2
20260507211824 63 258 4.3 9.6 0.00 0.02 0.02 58 1009.3
20260507211316 62 268 4.3 8.7 0.00 0.02 0.02 59 1009.2
20260507210810 62 260 5.2 12.2 0.00 0.02 0.02 58 1009.2
20260507210305 62 270 4.3 12.2 0.00 0.02 0.02 59 1009.2
20260507205806 62 274 3.5 10.4 0.00 0.02 0.02 59 1009.2
20260507205307 63 272 4.3 7.0 0.00 0.02 0.02 58 1009.1
20260507204805 63 315 3.5 6.1 0.00 0.02 0.02 59 1009.0
20260507204306 62 268 3.5 6.1 0.00 0.02 0.02 60 1009.0
20260507203802 63 295 3.5 7.8 0.00 0.02 0.02 60 1008.9
20260507203501 64 267 2.6 6.1 0.00 0.02 0.02 61 1008.9
20260507203423 63 285 3.5 7.8 0.00 0.02 0.02 59 1008.9
20260507202604 63 205 2.6 6.1 0.00 0.02 0.02 62 1008.8
20260507201803 63 303 1.7 5.2 0.00 0.02 0.02 68 1008.9
20260507201303 63 282 1.7 3.5 0.00 0.02 0.02 69 1008.9
20260507200812 63 310 1.7 3.5 0.00 0.02 0.02 70 1009.1
20260507200305 62 355 1.7 3.5 0.00 0.02 0.02 71 1009.2
20260507195803 62 263 1.7 3.5 0.00 0.02 0.02 71 1009.1
20260507195654 61 285 1.7 3.5 0.00 0.02 0.02 73 1009.2
20260507194804 60 304 1.7 3.5 0.00 0.02 0.02 73 1009.4
20260507194305 60 293 1.7 6.1 0.00 0.02 0.02 74 1009.6
20260507193806 61 315 2.6 6.1 0.00 0.02 0.02 74 1009.8
20260507193309 60 289 1.7 6.1 0.00 0.02 0.02 76 1009.8
20260507192804 60 295 0.0 3.5 0.00 0.02 0.02 75 1009.9
20260507192306 60 295 0.0 1.7 0.01 0.02 0.02 78 1010.0
20260507191802 60 284 0.9 2.6 0.01 0.02 0.02 78 1010.1
20260507191302 59 284 1.7 5.2 0.01 0.02 0.02 80 1010.2
20260507190802 59 296 1.7 5.2 0.01 0.02 0.02 78 1010.2
20260507190303 58 289 1.7 3.5 0.01 0.02 0.02 77 1010.2
20260507185801 58 278 0.9 3.5 0.01 0.02 0.02 81 1010.1
20260507185305 58 247 0.0 3.5 0.01 0.02 0.02 79 1010.3
20260507184801 58 245 0.0 0.9 0.02 0.02 0.02 82 1010.5
20260507184302 57 245 0.0 1.7 0.02 0.02 0.02 81 1010.6
20260507183803 57 245 0.9 1.7 0.02 0.02 0.02 83 1010.5
20260507183619 57 245 0.9 1.7 0.02 0.02 0.02 82 1010.6
20260507182803 57 231 0.0 1.7 0.02 0.02 0.02 78 1010.7
20260507182301 57 231 0.0 0.9 0.01 0.01 0.01 76 1010.6
20260507181802 57 231 0.9 1.7 0.01 0.01 0.01 75 1010.6
20260507181301 57 231 0.0 1.7 0.01 0.01 0.01 78 1010.6
20260507180802 57 231 0.0 1.7 0.01 0.01 0.01 79 1010.7
20260507180622 57 228 0.0 0.9 0.01 0.01 0.01 79 1010.8
20260507180138 57 228 0.0 0.9 0.01 0.01 0.01 80 1010.9
20260507175306 56 228 0.0 0.9 0.01 0.01 0.01 78 1010.7
20260507174800 56 228 0.0 1.7 0.00 0.00 0.00 78 1010.8
20260507174301 56 229 0.9 1.7 0.00 0.00 0.00 76 1010.9
20260507173801 56 229 0.9 2.6 0.00 0.00 0.00 76 1010.8
20260507173304 56 228 0.0 2.6 0.00 0.00 0.00 75 1010.8
20260507172800 56 156 0.0 1.7 0.00 0.00 0.00 76 1010.9
20260507172308 56 156 0.0 1.7 0.00 0.00 0.00 75 1010.9
20260507171801 56 98 0.0 1.7 0.00 0.00 0.00 77 1010.8
20260507171300 56 274 0.9 2.6 0.00 0.00 0.00 76 1011.3
20260507170800 56 274 1.7 3.5 0.00 0.00 0.00 75 1011.2
20260507170658 57 273 0.9 3.5 0.00 0.00 0.00 75 1011.2
20260507165803 57 217 0.9 3.5 0.00 0.00 0.00 76 1011.3
20260507165301 56 235 0.0 2.6 0.00 0.00 0.00 78 1011.3
20260507164801 56 232 0.0 2.6 0.00 0.00 0.00 77 1011.4
20260507164301 56 65 0.0 1.7 0.00 0.00 0.00 77 1011.4
20260507163802 56 261 0.0 1.7 0.00 0.00 0.00 78 1011.2
20260507163308 56 262 0.0 1.7 0.00 0.00 0.00 79 1011.2
20260507162802 56 262 0.0 1.7 0.00 0.00 0.00 81 1011.3
20260507162307 56 262 0.9 1.7 0.00 0.00 0.00 79 1011.3
20260507161806 56 262 0.9 2.6 0.00 0.00 0.00 80 1011.5
20260507161306 56 262 0.9 2.6 0.00 0.00 0.00 80 1011.5
20260507160803 56 252 0.9 1.7 0.00 0.00 0.00 79 1011.5
20260507160302 56 252 0.0 0.9 0.00 0.00 0.00 80 1011.5
20260507155804 56 252 0.0 0.9 0.00 0.00 0.00 78 1011.5
20260507155301 56 252 0.0 1.7 0.00 0.00 0.00 78 1011.5
20260507154804 56 252 0.0 1.7 0.00 0.00 0.00 77 1011.7
20260507154300 56 251 0.0 1.7 0.00 0.00 0.00 78 1011.7
20260507153801 56 251 0.9 1.7 0.00 0.00 0.00 79 1011.8
20260507153302 56 251 0.9 1.7 0.00 0.00 0.00 78 1011.8
20260507152804 57 251 0.9 1.7 0.00 0.00 0.00 77 1011.7
20260507152305 56 250 0.0 1.7 0.00 0.00 0.00 78 1011.6
20260507151806 57 262 0.0 1.7 0.00 0.00 0.00 79 1011.6
20260507151301 57 262 0.9 2.6 0.00 0.00 0.00 78 1011.6
20260507150804 57 262 0.9 3.5 0.00 0.00 0.00 78 1011.6
20260507150301 57 219 1.7 7.0 0.00 0.00 0.00 77 1011.6
20260507145801 57 43 0.9 7.0 0.00 0.00 0.00 78 1011.6
20260507145301 57 268 1.7 3.5 0.00 0.00 0.00 78 1011.8
20260507144802 57 272 1.7 2.6 0.00 0.00 0.00 80 1011.6
20260507144644 57 272 0.9 2.6 0.00 0.00 0.00 79 1011.5
20260507143801 58 272 0.0 1.7 0.00 0.01 0.00 79 1011.4
20260507143302 57 286 0.0 1.7 0.00 0.01 0.00 79 1011.4
20260507142806 57 287 0.9 1.7 0.00 0.01 0.00 79 1011.3
20260507142301 57 272 0.9 2.6 0.00 0.01 0.00 78 1011.4
20260507141805 57 272 0.9 2.6 0.00 0.01 0.00 78 1011.3
20260507141301 57 266 0.9 2.6 0.00 0.01 0.00 78 1011.3
20260507140802 57 75 0.9 2.6 0.00 0.01 0.00 78 1011.2
20260507140301 57 274 1.7 8.7 0.00 0.01 0.00 78 1011.3
20260507135804 57 276 1.7 8.7 0.00 0.01 0.00 78 1011.3
20260507135305 57 214 0.9 2.6 0.00 0.01 0.00 77 1011.5
20260507134802 58 5 0.9 6.1 0.00 0.01 0.00 78 1011.7
20260507134302 57 241 1.7 6.1 0.00 0.01 0.00 78 1011.7
20260507133801 57 162 1.7 7.8 0.00 0.01 0.00 77 1011.5
20260507133303 57 109 1.7 7.8 0.00 0.01 0.00 77 1011.7
20260507132801 58 270 1.7 4.3 0.00 0.01 0.00 77 1011.9
20260507132302 58 231 0.9 4.3 0.00 0.01 0.00 77 1011.7
20260507131804 58 230 0.9 2.6 0.00 0.01 0.00 76 1011.7
20260507131301 58 260 0.9 2.6 0.00 0.01 0.00 77 1011.7
20260507131110 58 209 1.7 5.2 0.00 0.01 0.00 76 1011.7
20260507130306 58 231 1.7 5.2 0.00 0.01 0.00 76 1011.6
20260507125805 58 272 0.9 3.5 0.00 0.01 0.00 76 1011.7
20260507125259 58 262 0.0 1.7 0.00 0.01 0.00 77 1011.7
20260507125037 58 262 0.9 2.6 0.00 0.01 0.00 76 1011.7
20260507124250 58 262 0.9 4.3 0.00 0.01 0.00 76 1011.7
20260507123752 58 244 0.9 5.2 0.00 0.01 0.00 76 1011.6
20260507123248 58 224 0.9 5.2 0.00 0.01 0.00 78 1011.5
20260507122750 58 310 0.9 1.7 0.00 0.01 0.00 80 1011.5
20260507122609 58 258 0.0 1.7 0.00 0.01 0.00 79 1011.5
20260507121747 58 258 0.9 4.3 0.00 0.01 0.00 79 1011.5
20260507121248 58 258 1.7 4.3 0.00 0.01 0.00 79 1011.4
20260507120745 58 256 1.7 5.2 0.00 0.01 0.00 78 1011.6
20260507120248 58 179 1.7 5.2 0.00 0.02 0.00 78 1011.6
20260507120047 58 243 1.7 4.3 0.00 0.02 0.00 79 1011.5
20260507115246 58 160 1.7 4.3 0.00 0.02 0.00 78 1011.6
20260507114742 58 243 1.7 3.5 0.00 0.02 0.00 79 1011.2
20260507114241 58 170 0.9 4.3 0.00 0.02 0.00 79 1011.4
20260507114112 58 168 0.9 4.3 0.00 0.02 0.00 79 1011.5
20260507113242 58 267 0.9 2.6 0.00 0.03 0.00 80 1011.4
20260507112741 58 267 0.9 2.6 0.00 0.03 0.00 79 1011.5
20260507112235 58 243 0.9 1.7 0.00 0.03 0.00 80 1011.2
20260507111737 58 249 0.0 1.7 0.00 0.03 0.00 80 1011.3
20260507111538 58 153 0.0 1.7 0.00 0.06 0.00 80 1011.2
20260507110730 58 179 0.9 3.5 0.00 0.08 0.00 80 1011.3
20260507110537 58 212 0.9 4.3 0.00 0.09 0.00 78 1011.2
20260507105729 58 181 0.9 4.3 0.00 0.09 0.00 78 1010.9
20260507105230 58 184 0.9 2.6 0.00 0.09 0.00 80 1011.2
20260507104731 58 185 0.9 2.6 0.00 0.09 0.00 79 1011.2
20260507104229 58 266 0.0 2.6 0.00 0.09 0.00 79 1010.8
20260507103728 59 266 0.0 2.6 0.00 0.09 0.00 79 1010.8
20260507103230 58 266 1.7 3.5 0.00 0.09 0.00 78 1010.7
20260507102727 58 266 0.9 3.5 0.00 0.09 0.00 79 1010.8
20260507102538 58 187 0.0 1.7 0.00 0.09 0.00 80 1010.7
20260507101727 59 159 0.0 2.6 0.00 0.09 0.00 79 1010.6
20260507101225 59 159 0.9 2.6 0.00 0.09 0.00 78 1010.5
20260507100725 59 150 0.9 1.7 0.00 0.09 0.00 79 1010.6
20260507100232 59 156 0.0 1.7 0.00 0.09 0.00 78 1010.7
20260507095724 59 237 0.0 1.7 0.00 0.09 0.00 79 1010.9
20260507095229 59 237 0.9 2.6 0.00 0.09 0.00 78 1010.8
20260507094727 59 236 0.9 2.6 0.00 0.09 0.00 78 1010.9
20260507094220 59 170 0.9 2.6 0.00 0.09 0.00 79 1010.9
20260507093713 59 167 0.9 3.5 0.00 0.09 0.00 78 1010.8
20260507093213 59 169 0.9 3.5 0.00 0.09 0.00 79 1010.7
20260507092714 59 187 0.0 2.6 0.00 0.09 0.00 77 1010.7
20260507092214 59 108 0.9 2.6 0.00 0.09 0.00 77 1010.8
20260507091711 59 138 0.9 2.6 0.00 0.09 0.00 77 1010.7
20260507091211 60 102 0.0 1.7 0.00 0.09 0.00 79 1010.9
20260507090711 60 48 0.0 0.9 0.00 0.09 0.00 77 1010.4
20260507090209 60 47 0.9 2.6 0.00 0.09 0.00 78 1010.3
20260507085709 60 47 0.9 2.6 0.00 0.09 0.00 78 1010.3
20260507085549 60 108 0.9 2.6 0.00 0.09 0.00 77 1010.1
20260507084700 60 205 0.9 2.6 0.00 0.09 0.00 76 1010.3
20260507084201 60 226 1.7 7.0 0.00 0.09 0.00 76 1010.4
20260507084102 60 168 1.7 7.0 0.00 0.09 0.00 76 1010.3
20260507083205 61 230 1.7 5.2 0.00 0.09 0.00 76 1010.5
20260507082701 61 288 2.6 7.0 0.00 0.09 0.00 77 1010.9
20260507082202 61 273 1.7 7.0 0.00 0.09 0.00 77 1010.8
20260507082019 61 297 1.7 4.3 0.00 0.09 0.00 77 1010.6
20260507081155 61 89 1.7 4.3 0.00 0.09 0.00 77 1010.9
20260507080646 61 51 0.9 4.3 0.00 0.09 0.00 77 1010.7
20260507080149 61 181 1.7 4.3 0.00 0.09 0.00 78 1010.5
20260507075645 62 222 0.9 3.5 0.00 0.09 0.00 76 1010.5
20260507075143 62 146 0.9 2.6 0.00 0.09 0.00 77 1010.3
20260507075024 62 150 2.6 11.3 0.00 0.09 0.00 76 1010.4
20260507074139 62 91 4.3 11.3 0.00 0.09 0.00 76 1010.3
20260507073638 62 263 2.6 8.7 0.00 0.09 0.00 76 1010.6
20260507073138 62 261 0.9 5.2 0.00 0.09 0.00 78 1010.7
20260507072637 62 281 0.9 5.2 0.00 0.09 0.00 77 1010.7
20260507072136 62 281 2.6 5.2 0.00 0.09 0.00 77 1010.2
20260507071637 62 324 3.5 6.1 0.00 0.09 0.00 77 1010.4
20260507071137 62 260 1.7 6.1 0.00 0.09 0.00 78 1010.5
20260507070632 62 262 0.9 4.3 0.00 0.09 0.00 78 1010.1
20260507070359 62 309 0.9 3.5 0.00 0.09 0.00 79 1010.1
20260507065629 62 312 0.9 3.5 0.00 0.09 0.00 80 1010.4
20260507065131 63 15 0.9 3.5 0.00 0.09 0.00 80 1010.3
20260507064630 63 289 2.6 6.1 0.00 0.09 0.00 78 1010.5
20260507064129 63 302 3.5 6.1 0.00 0.09 0.00 78 1010.4
20260507063632 63 281 3.5 4.3 0.00 0.09 0.00 78 1010.3